Weather History for Elizabeth City, NC

Change the Weather History Date:

Saturday, February 16, 2013

  Actual Average Record
Temperature  
Mean Temperature 44 °F 44 °F  
Max Temperature 52 °F 54 °F 80 °F (1945)
Min Temperature 36 °F 35 °F 16 °F (1963)
Degree Days  
Heating Degree Days 21 21  
Month to date heating degree days 305 347  
Since 1 July heating degree days 1768 2234  
Cooling Degree Days 0 0  
Month to date cooling degree days 0 0  
Year to date cooling degree days 5 1  
Moisture  
Dew Point 34 °F    
Average Humidity 70    
Maximum Humidity 89    
Minimum Humidity 50    
Precipitation  
Precipitation 0.13 in 0.12 in 1.84 in (2003)
Month to date precipitation 1.68 1.80  
Year to date precipitation 3.08 5.06  
Snow  
Snow 0.00 in - - ()
Month to date snowfall 0.0  
Since 1 July snowfall 0.0  
Snow Depth 0.00 in    
Sea Level Pressure  
Sea Level Pressure 29.83 in    
Wind  
Wind Speed 13 mph (North)    
Max Wind Speed 21 mph    
Max Gust Speed 28 mph    
Visibility 8 miles    
Events Rain , Snow    
T = Trace of Precipitation, MM = Missing Value Source: NWS Daily Summary

Daily Weather History Graph

Daily Weather History Graph

Search for Another Location

Airport:

Trip Planner

Search our weather history database for the weather conditions in past years. The results will help you decide how hot, cold, wet, or windy it might be!

Date:

Astronomy

Feb. 16, 2013 Rise Set
Actual Time 6:50 AM EST 5:47 PM EST
Civil Twilight 6:24 AM EST 6:13 PM EST
Nautical Twilight 5:54 AM EST 6:43 PM EST
Astronomical Twilight 5:24 AM EST 7:13 PM EST
Moon 10:15 AM EST (2/16) No Moon Set
Length of Visible Light 11h 48m
Length of Day
10h 56m
Waxing Crescent, 39% of the Moon is Illuminated
Feb 16
Waxing Crescent
Feb 17
First Quarter
Feb 25
Full
Mar 4
Last Quarter
Mar 11
New

Hourly Weather History & Observations

Time (EST) Temp. Windchill Dew Point Humidity Pressure Visibility Wind Dir Wind Speed Gust Speed Precip Events Conditions
12:54 AM 43.0 °F 39.5 °F 37.0 °F 80% 29.94 in 10.0 mi SSW 5.8 mph - N/A   Clear
1:54 AM 43.0 °F 40.3 °F 36.0 °F 76% 29.92 in 10.0 mi SSW 4.6 mph - N/A   Clear
2:54 AM 45.0 °F 41.8 °F 37.0 °F 74% 29.93 in 10.0 mi NNW 5.8 mph - N/A   Clear
3:54 AM 45.0 °F 38.2 °F 36.0 °F 71% 29.93 in 10.0 mi North 15.0 mph 19.6 mph N/A   Clear
4:54 AM 43.0 °F 36.4 °F 36.0 °F 76% 29.94 in 10.0 mi North 12.7 mph - N/A   Clear
5:54 AM 42.1 °F 37.1 °F 35.1 °F 76% 29.93 in 10.0 mi NNE 8.1 mph - N/A   Clear
6:54 AM 42.1 °F 36.6 °F 35.1 °F 76% 29.92 in 10.0 mi North 9.2 mph - N/A   Clear
7:54 AM 43.0 °F 37.7 °F 35.1 °F 74% 29.91 in 10.0 mi North 9.2 mph - N/A   Clear
8:54 AM 44.1 °F 37.7 °F 36.0 °F 73% 29.92 in 10.0 mi North 12.7 mph - N/A   Clear
9:54 AM 46.9 °F - 36.0 °F 66% 29.89 in 10.0 mi NNE 12.7 mph - N/A   Clear
10:54 AM 51.1 °F - 34.0 °F 52% 29.88 in 10.0 mi NNE 11.5 mph - N/A   Partly Cloudy
11:54 AM 51.1 °F - 34.0 °F 52% 29.86 in 10.0 mi NNE 9.2 mph 24.2 mph N/A   Mostly Cloudy
12:30 PM 48.2 °F - 35.6 °F 62% 29.85 in 10.0 mi North 17.3 mph - N/A   Overcast
12:54 PM 46.9 °F - 35.1 °F 63% 29.83 in 10.0 mi North 16.1 mph - N/A   Overcast
1:46 PM 46.4 °F 40.4 °F 35.6 °F 66% 29.81 in 10.0 mi North 13.8 mph - N/A   Overcast
1:54 PM 46.0 °F 39.3 °F 35.1 °F 66% 29.80 in 10.0 mi North 16.1 mph - N/A   Overcast
2:01 PM 46.4 °F 40.7 °F 35.6 °F 66% 29.79 in 10.0 mi North 12.7 mph - N/A   Overcast
2:54 PM 44.1 °F 37.4 °F 35.1 °F 71% 29.77 in 10.0 mi North 13.8 mph - N/A   Overcast
3:54 PM 42.1 °F 34.5 °F 35.1 °F 76% 29.76 in 10.0 mi North 15.0 mph 23.0 mph 0.00 in Rain Light Rain
4:46 PM 39.2 °F 30.5 °F 35.6 °F 87% 29.75 in 6.0 mi North 16.1 mph - 0.01 in Rain Light Rain
4:54 PM 39.9 °F 31.4 °F 35.1 °F 83% 29.75 in 5.0 mi NNW 16.1 mph - 0.02 in Rain Light Rain
5:54 PM 37.9 °F 28.9 °F 33.1 °F 83% 29.75 in 6.0 mi NNW 16.1 mph 25.3 mph 0.04 in Snow Light Snow
6:54 PM 36.0 °F 27.5 °F 32.0 °F 86% 29.77 in 2.5 mi NW 12.7 mph - 0.02 in Snow Light Snow
7:54 PM 36.0 °F 27.1 °F 32.0 °F 86% 29.77 in 4.0 mi NW 13.8 mph 20.7 mph 0.02 in Snow Light Snow
8:54 PM 37.0 °F 28.1 °F 33.1 °F 86% 29.77 in 8.0 mi NNW 15.0 mph - 0.02 in Snow Light Snow
9:54 PM 37.0 °F 27.7 °F 33.1 °F 86% 29.77 in 5.0 mi NNW 16.1 mph - 0.00 in Snow Light Snow
10:27 PM 35.6 °F 25.9 °F 32.0 °F 87% 29.77 in 2.5 mi NNW 16.1 mph - 0.00 in Snow Light Snow
10:54 PM 36.0 °F 26.3 °F 32.0 °F 86% 29.77 in 2.5 mi NNW 16.1 mph 23.0 mph 0.01 in Snow Light Snow
11:31 PM 35.6 °F 25.2 °F 30.2 °F 81% 29.78 in 3.0 mi NW 18.4 mph 27.6 mph 0.00 in Snow Light Snow
11:54 PM 36.0 °F 26.3 °F 30.0 °F 79% 29.78 in 8.0 mi NNW 16.1 mph 25.3 mph 0.00 in   Overcast